[[{"header":{"parameterUnit":"m.s-1","parameterCategory":1,"la1":30.2991,"la2":30.254,"lo1":-89.0895,"lo2":-89.0444,"dy":0.0017,"dx":0.0017,"nx":28,"ny":28,"refTime":"2025-07-14T03:00:00:Z","depth":0,"parameterNumber":2,"parameterNumberName":"U-component_of_WINDS"},"data":[0,0,0,0,0,0,0,0,0,0,0,0,0,0,0,0,0,0,0,0,0,0,0,0,0,0,0,0,0,0,0,0,0,0,0,0,0,0,0,0,0,0,0,0,0,0,0,0,0,0,0,0,0,0,0,0,0,0,3.6984,3.6985,0,3.7118,3.712,3.7121,3.7074,3.7071,3.7068,3.7066,3.7205,3.7211,3.7218,0,0,0,0,0,0,0,0,0,0,0,0,0,3.6688,3.6694,3.6984,3.6985,3.6987,3.7118,3.712,3.7121,3.7075,3.7071,3.7068,3.7064,3.7203,3.7211,3.7218,0,0,0,0,0,0,0,0,0,0,0,0,0,3.6819,3.6696,3.6983,3.6979,3.698,3.7117,3.712,3.7122,3.7076,3.7071,3.7067,3.7063,3.7201,3.721,3.722,3.7369,0,0,3.7249,3.7254,0,0,0,0,0,0,0,0,3.6812,3.683,3.6978,3.698,3.6981,3.7075,3.7067,3.7205,3.7077,3.704,3.7066,3.706,3.7166,3.7178,3.7213,3.7375,3.7381,3.725,3.7256,3.726,3.7263,0,0,0,0,0,0,0,3.6803,3.6824,3.7037,3.6981,3.6982,3.6971,3.6985,3.7093,3.7126,3.7042,3.7039,3.7056,3.7166,3.7204,3.7216,3.7384,3.725,3.7259,3.7265,3.7268,3.7675,3.768,0,0,0,0,0,0,3.6792,3.6817,3.7032,3.7041,3.6884,3.698,3.6996,3.7049,3.7125,3.7132,3.706,3.7053,3.7189,3.7205,3.7221,3.74,3.726,3.7269,3.7275,3.767,3.7676,3.7681,0,0,0,0,0,0,3.6786,3.6812,3.7027,3.6928,3.6954,3.699,3.7051,3.7054,3.7092,3.7138,3.7143,3.7092,3.7186,3.7207,3.7332,3.7404,3.7274,3.7283,3.7664,3.7672,3.7679,3.776,0,0,0,0,0,0,3.6778,3.681,3.6867,3.693,3.696,3.7136,3.7055,3.706,3.7109,3.7102,3.717,3.7177,3.7184,3.7318,3.7342,3.7415,3.729,3.7658,3.7668,3.7676,3.7751,3.7769,3.7785,0,0,0,0,0,3.6768,3.6885,3.687,3.6896,3.7032,3.714,3.7158,3.7164,3.7115,3.7173,3.7202,3.7175,3.7392,3.7331,3.7358,3.7435,3.7653,3.7665,3.7676,3.7743,3.7765,3.7784,0,0,0,0,0,0,3.6831,3.6893,3.6877,3.7018,3.7074,3.7132,3.7205,3.7187,3.7258,3.7249,3.7254,3.727,3.7398,3.7429,3.736,3.7583,3.7516,3.7533,3.7558,3.7579,3.7596,3.7585,3.7298,0,0,0,0,0,3.6861,3.6944,3.6994,3.7114,3.7142,3.7169,3.7217,3.7216,3.7275,3.7298,3.7336,3.7395,3.7476,3.753,3.7607,3.7755,3.7769,3.7822,3.7838,3.7852,3.7867,3.7947,3.797,3.7718,3.7718,3.7718,0,0,3.6924,3.6969,3.7021,3.7127,3.7171,3.7256,3.7189,3.7283,3.7347,3.7313,3.7433,3.7463,3.7528,3.7666,3.7728,3.7695,3.7939,3.7866,3.7877,3.7884,3.796,3.7984,3.8006,3.7726,3.7724,3.7723,0,0,3.7083,3.7126,3.7229,3.7274,3.734,3.7357,3.7382,3.7443,3.7462,3.7582,3.7558,3.7635,3.7775,3.7822,3.7865,3.8042,3.802,3.8067,3.8155,3.8233,3.8253,3.8271,3.8333,3.8355,3.8082,3.8082,3.8082,0,3.7154,3.7282,3.7285,3.7381,3.7428,3.7401,3.7506,3.755,3.7638,3.7672,3.7634,3.7809,3.7851,3.7999,3.8042,3.8078,3.8106,3.8059,3.825,3.8268,3.8284,3.8344,3.8367,3.8087,3.8086,3.8086,3.8085,0,3.7365,3.7454,3.753,3.7615,3.7671,3.7771,3.779,3.7847,3.7842,3.7863,3.7986,3.8036,3.8122,3.8158,3.8154,3.8305,3.8283,3.8248,3.818,3.8313,3.8369,3.8392,3.8095,3.8093,3.8091,3.809,0,0,3.7567,3.7652,3.768,3.7718,3.7789,3.7858,3.7957,3.8041,3.809,3.8152,3.8235,3.8354,3.8322,3.837,3.8372,3.8441,3.8577,3.8397,3.8399,3.8428,3.8745,3.877,3.8797,3.8563,3.8567,3.8571,3.8739,0,3.7731,3.7904,3.791,3.8068,3.815,3.8125,3.8211,3.8264,3.8287,3.836,3.8385,3.8469,3.8421,3.845,3.8517,3.8546,3.864,3.8534,3.864,3.8644,3.8623,3.8826,3.8853,3.901,3.8761,3.8765,3.8768,0,3.7945,3.8013,3.8179,3.8238,3.8272,3.835,3.8427,3.8497,3.8557,3.8569,3.8623,3.8614,3.8716,3.8645,3.8785,3.8712,3.8756,3.8777,3.8784,3.8793,3.8713,3.884,3.906,3.9083,3.8803,3.88,3.8797,0,3.8075,3.8208,3.8324,3.8358,3.8429,3.8484,3.8517,3.8572,3.8622,3.869,3.8723,3.8802,3.8845,3.8907,3.8921,3.8868,3.906,3.8991,3.9073,3.9072,3.9113,3.911,3.9343,3.9144,3.9143,3.9143,3.9142,0,3.8257,3.8359,3.8383,3.8455,3.8568,3.8575,3.8687,3.8716,3.8766,3.8842,3.8827,3.8899,3.8913,3.8988,3.9,3.9113,3.9133,3.9146,3.9147,3.9146,3.9145,3.9174,3.9163,3.9149,3.9148,3.9147,3.9145,0,3.8421,3.8441,3.8566,3.8623,3.864,3.8721,3.877,3.8839,3.886,3.8957,3.898,3.9013,3.9101,3.9121,3.9226,3.9233,3.9368,3.936,3.9347,3.9346,3.9426,3.9418,3.9685,3.972,3.9499,3.9501,3.9503,0,3.8535,3.8613,3.8679,3.8728,3.8763,3.8844,3.8894,3.8904,3.8958,3.9031,3.9091,3.9177,3.9247,3.9389,3.9422,3.9503,3.9495,3.9583,3.9507,3.9504,3.9495,3.949,3.9498,3.9597,3.96,3.9602,3.9603,0,3.8736,3.8742,3.8815,3.8892,3.8953,3.9014,3.9072,3.9114,3.9132,3.9193,3.9282,3.9336,3.9443,3.9529,3.9609,3.9643,3.9627,3.9627,3.965,3.9649,3.9639,3.9645,3.9386,3.9621,3.9619,3.9618,3.9617,3.9616,3.8878,3.8945,3.9002,3.9084,3.9129,3.9183,3.925,3.9279,3.9353,3.944,3.9442,3.9539,3.9597,3.9703,3.9742,3.9819,3.9791,3.9825,3.9833,3.9841,3.9848,3.9627,3.9833,3.9833,3.9833,3.9832,3.9832,0,3.9077,3.9112,3.9187,3.9268,3.9333,3.9311,3.9375,3.943,3.9516,3.9571,3.9639,3.9742,3.9825,3.9865,3.9947,4.0001,3.9995,4.0022,4.0017,4.0025,3.9868,3.9839,4.0025,4.0025,4.0025,4.0025,4.0025,4.0025,3.9188,3.9301,3.9313,3.9448,3.9483,3.9577,3.9615,3.9666,3.9709,3.9824,3.9893,3.9918,3.9967,4.0053,4.0128,4.0138,4.0168,4.0199,4.0205,4.0056,4.0037,4.0018,3.9991,4.0205,4.0206,4.0355,4.0357,4.0358]},{"header":{"parameterUnit":"m.s-1","parameterCategory":1,"la1":30.2991,"la2":30.254,"lo1":-89.0895,"lo2":-89.0444,"dy":0.0017,"dx":0.0017,"nx":28,"ny":28,"refTime":"2025-07-14T03:00:00:Z","depth":0,"parameterNumber":3,"parameterNumberName":"V-component_of_WINDS"},"data":[0,0,0,0,0,0,0,0,0,0,0,0,0,0,0,0,0,0,0,0,0,0,0,0,0,0,0,0,0,0,0,0,0,0,0,0,0,0,0,0,0,0,0,0,0,0,0,0,0,0,0,0,0,0,0,0,0,0,0.2394,0.2394,0,0.2378,0.2378,0.2378,0.2353,0.2353,0.2352,0.2352,0.2338,0.2338,0.2338,0,0,0,0,0,0,0,0,0,0,0,0,0,0.2402,0.2402,0.2394,0.2394,0.2393,0.2379,0.2378,0.2378,0.2353,0.2353,0.2352,0.2351,0.2338,0.2338,0.2338,0,0,0,0,0,0,0,0,0,0,0,0,0,0.2394,0.2402,0.2394,0.2379,0.2378,0.2379,0.2378,0.2378,0.2353,0.2353,0.2352,0.2351,0.2338,0.2338,0.2338,0.2353,0,0,0.2339,0.2339,0,0,0,0,0,0,0,0,0.2395,0.2394,0.2381,0.238,0.2378,0.2367,0.2376,0.237,0.2353,0.2363,0.2352,0.2351,0.2348,0.2348,0.2346,0.2352,0.2352,0.2339,0.2339,0.2339,0.2339,0,0,0,0,0,0,0,0.2395,0.2394,0.2388,0.2381,0.238,0.2374,0.2372,0.2375,0.236,0.2362,0.236,0.2358,0.2348,0.2346,0.2346,0.2352,0.2339,0.2339,0.2339,0.2339,0.2368,0.2368,0,0,0,0,0,0,0.2398,0.2395,0.2388,0.2387,0.2385,0.2374,0.2372,0.2371,0.236,0.2357,0.2359,0.2357,0.2346,0.2346,0.2345,0.2361,0.2339,0.2339,0.2339,0.2367,0.2368,0.2368,0,0,0,0,0,0,0.2398,0.2397,0.2389,0.2391,0.2389,0.2375,0.2374,0.2371,0.237,0.2357,0.2355,0.236,0.2346,0.2345,0.2351,0.236,0.2339,0.2339,0.2366,0.2367,0.2368,0.2393,0,0,0,0,0,0,0.2398,0.2398,0.2403,0.2391,0.2389,0.2395,0.2375,0.2372,0.237,0.2368,0.2358,0.2356,0.2345,0.2351,0.2351,0.236,0.2339,0.2365,0.2366,0.2368,0.2392,0.2395,0.2398,0,0,0,0,0,0.2399,0.2412,0.2403,0.2403,0.2395,0.2395,0.2394,0.2381,0.2371,0.2377,0.2368,0.2356,0.2359,0.2352,0.2352,0.2361,0.2365,0.2366,0.2368,0.239,0.2394,0.2398,0,0,0,0,0,0,0.2427,0.241,0.2401,0.241,0.2404,0.2391,0.2398,0.2386,0.2384,0.2382,0.2366,0.2364,0.2372,0.2367,0.2359,0.2374,0.236,0.2361,0.2377,0.2381,0.2384,0.2386,0.2339,0,0,0,0,0,0.2434,0.2434,0.242,0.2429,0.2427,0.2413,0.2412,0.2402,0.2396,0.2394,0.2385,0.238,0.238,0.238,0.2379,0.239,0.2388,0.2397,0.24,0.2403,0.2404,0.2409,0.2413,0.2374,0.2374,0.2373,0,0,0.2449,0.2439,0.2441,0.2435,0.2429,0.243,0.2411,0.2413,0.2414,0.2394,0.2399,0.2392,0.2385,0.2394,0.2397,0.239,0.2414,0.2404,0.2407,0.2407,0.2411,0.2415,0.2418,0.2375,0.2374,0.2374,0,0,0.2477,0.247,0.2476,0.2471,0.2462,0.2452,0.2453,0.2442,0.2436,0.244,0.2425,0.2426,0.2425,0.2421,0.2418,0.2442,0.2431,0.2442,0.2459,0.2464,0.2467,0.247,0.2478,0.2481,0.2444,0.2444,0.2444,0,0.2497,0.2498,0.2482,0.2485,0.2482,0.2462,0.2469,0.2464,0.2456,0.2454,0.2446,0.2444,0.2438,0.2445,0.245,0.2449,0.245,0.2444,0.2468,0.2471,0.2473,0.2481,0.2484,0.2445,0.2445,0.2445,0.2445,0,0.2522,0.2523,0.253,0.2521,0.2519,0.2524,0.2508,0.2508,0.2498,0.2489,0.2493,0.2484,0.2481,0.2481,0.2472,0.2486,0.2482,0.2471,0.2457,0.2478,0.2485,0.2488,0.2447,0.2447,0.2446,0.2446,0,0,0.257,0.255,0.2553,0.2548,0.2535,0.2536,0.2539,0.2535,0.2535,0.2529,0.2531,0.253,0.252,0.2517,0.2507,0.2511,0.2529,0.2499,0.2499,0.2505,0.2544,0.2553,0.2556,0.2521,0.2522,0.2522,0.2545,0,0.2595,0.26,0.2585,0.2593,0.2593,0.2573,0.2576,0.2569,0.256,0.2559,0.2549,0.2549,0.2535,0.2533,0.2536,0.2527,0.2537,0.2525,0.2524,0.2524,0.2527,0.256,0.2569,0.2591,0.2547,0.2548,0.2548,0,0.2627,0.2621,0.2629,0.2615,0.2614,0.2617,0.2611,0.261,0.2601,0.2594,0.259,0.2577,0.2579,0.2565,0.2568,0.2559,0.2558,0.2553,0.2553,0.2554,0.2538,0.2561,0.2597,0.2601,0.2552,0.2552,0.2551,0,0.266,0.2655,0.2659,0.2655,0.2638,0.2641,0.2634,0.2624,0.2622,0.2616,0.2614,0.261,0.2607,0.2604,0.259,0.258,0.2594,0.2578,0.2588,0.2589,0.2593,0.2593,0.263,0.2591,0.2591,0.2591,0.2591,0,0.2691,0.2697,0.2673,0.2676,0.2681,0.2663,0.2669,0.2661,0.2652,0.2652,0.2635,0.2635,0.2617,0.2615,0.2604,0.2608,0.2607,0.2602,0.2599,0.2603,0.2604,0.2603,0.2601,0.2592,0.2592,0.2592,0.2592,0,0.273,0.2714,0.2717,0.27,0.2696,0.2701,0.2687,0.2689,0.2678,0.2678,0.2677,0.2661,0.2658,0.2643,0.2637,0.263,0.2637,0.2631,0.264,0.2639,0.2649,0.2649,0.2687,0.2691,0.265,0.265,0.2651,0,0.2751,0.2755,0.2738,0.2736,0.273,0.2728,0.2725,0.2707,0.2705,0.2693,0.2696,0.2692,0.2687,0.2684,0.2671,0.2667,0.266,0.2674,0.266,0.2664,0.2661,0.2661,0.2661,0.2678,0.2678,0.2679,0.2679,0,0.279,0.2782,0.2778,0.2771,0.2767,0.2761,0.2754,0.2753,0.2733,0.2731,0.2727,0.2724,0.2717,0.2713,0.2705,0.2699,0.2686,0.2683,0.2685,0.2691,0.2696,0.2693,0.2649,0.2683,0.2682,0.2682,0.2682,0.2682,0.2821,0.2823,0.2811,0.2807,0.2799,0.2792,0.2792,0.278,0.2777,0.2769,0.2758,0.2756,0.2745,0.2734,0.2728,0.2726,0.2718,0.2721,0.2722,0.2723,0.2726,0.2695,0.2724,0.2724,0.2724,0.2724,0.2724,0,0.2859,0.285,0.2846,0.2835,0.2832,0.2818,0.2809,0.2807,0.2805,0.2795,0.2791,0.2786,0.2781,0.2768,0.2761,0.2762,0.2756,0.2761,0.2761,0.276,0.2733,0.2732,0.2766,0.2766,0.2766,0.2766,0.2766,0.2766,0.2879,0.2881,0.2871,0.2869,0.2859,0.2856,0.2852,0.2845,0.2837,0.2833,0.2828,0.2819,0.2807,0.28,0.2795,0.2791,0.2789,0.2797,0.2791,0.2766,0.2762,0.2758,0.2757,0.2796,0.2796,0.2818,0.2818,0.2818]}]]